Back to catalog

STARLINK-38165

AliveCommunicationsSSO
NORAD 100191·PAYLOAD·🇺🇸 United States

Launched Aug 1, 2026 from Vandenberg Space Force Base

Loading…

Next Passes (next 24 hours)

TLE

FreshSource: Space-Track

Epoch: Sep 14, 2026, 07:15 UTC

1 A0191U 26175N   26257.30256367  .00118868  00000-0  78583-3 0  9992
2 A0191  97.2836  99.4785 0002118  73.2407 286.9091 15.75216432  8206

Track STARLINK-38165 in real time with AllMySat

Download on the App Store